This is the latest recevied weather packets stored in our database for station/object KN6ZYR. If no packets are shown the sender has not sent any weather packets the latest 10 day(s).
| Time | Temp. | Humidity | Pressure | Rain* | Wind** | Luminosity | Snow |
|---|---|---|---|---|---|---|---|
| 1777722250 | 7.78° C | 54% | 1020.7 hPa | 0 mm | - | 0 W/m² | - |
| 1777721947 | 8.33° C | 52% | 1020.6 hPa | 0 mm | - | 0 W/m² | - |
| 1777721645 | 8.89° C | 51% | 1020.5 hPa | 0 mm | - | 0 W/m² | - |
| 1777721343 | 8.89° C | 51% | 1020.8 hPa | 0 mm | - | 0 W/m² | - |
| 1777721040 | 8.89° C | 47% | 1020.7 hPa | 0 mm | - | 0 W/m² | - |
| 1777720737 | 8.89° C | 46% | 1020.7 hPa | 0 mm | - | 0 W/m² | - |
| 1777720435 | 8.89° C | 46% | 1020.8 hPa | 0 mm | - | 0 W/m² | - |
| 1777720132 | 8.89° C | 47% | 1020.7 hPa | 0 mm | - | 0 W/m² | - |
| 1777719830 | 8.89° C | 48% | 1020.9 hPa | 0 mm | - | 0 W/m² | - |
| 1777719527 | 8.89° C | 48% | 1020.9 hPa | 0 mm | - | 0 W/m² | - |
| 1777719224 | 8.89° C | 48% | 1020.7 hPa | 0 mm | - | 0 W/m² | - |
| 1777718922 | 8.89° C | 49% | 1020.8 hPa | 0 mm | - | 0 W/m² | - |
| 1777718619 | 8.89° C | 49% | 1020.7 hPa | 0 mm | - | 0 W/m² | - |
| 1777718316 | 9.44° C | 46% | 1020.7 hPa | 0 mm | - | 0 W/m² | - |
| 1777718013 | 10° C | 45% | 1020.7 hPa | 0 mm | - | 0 W/m² | - |
| 1777717710 | 10° C | 45% | 1020.7 hPa | 0 mm | - | 0 W/m² | - |
| 1777717407 | 9.44° C | 47% | 1020.8 hPa | 0 mm | - | 0 W/m² | - |
| 1777717105 | 9.44° C | 48% | 1020.7 hPa | 0 mm | - | 0 W/m² | - |
| 1777716802 | 10° C | 45% | 1020.8 hPa | 0 mm | - | 0 W/m² | - |
| 1777716501 | 10.56° C | 42% | 1020.6 hPa | 0 mm | - | 0 W/m² | - |
| 1777716200 | 10.56° C | 41% | 1020.8 hPa | 0 mm | - | 0 W/m² | - |
| 1777715896 | 10.56° C | 41% | 1020.7 hPa | 0 mm | - | 0 W/m² | - |
| 1777715594 | 10.56° C | 41% | 1020.7 hPa | 0 mm | - | 0 W/m² | - |
| 1777715292 | 11.11° C | 41% | 1020.8 hPa | 0 mm | - | 0 W/m² | - |
| 1777714990 | 11.11° C | 41% | 1020.6 hPa | 0 mm | - | 0 W/m² | - |
* Rain latest hour (hover to see other rain measurements)
** Current wind speed in m/s (hover to see current wind gust speed)